Regional Weather Roundup
Issued by NWS Melbourne, FL

Current Version | Previous Version | Text Only | Print | Product List | Glossary On
Versions: 1 2 3 4 5 6 7 8 9 10 11 12 13 14 15 16 17 18 19 20 21 22 23 24 25 26 27 28 29 30 31 32 33 34 35 36 37 38 39 40 41 42 43 44 45 46 47 48 49 50
000 ASUS42 KMLB 021712 RWRMLB HOURLY WEATHER ROUNDUP AROUND FLORIDA NATIONAL WEATHER SERVICE OFFICE MELBOURNE FL 1200 PM EST TUE MAR 02 2021 CITY SKY/WX TMP DP RH WIND PRES REMARKS MELBOURNE PTSUNNY 79 66 64 NE8 30.06F FORT PIERCE MOSUNNY 82 66 58 CALM 30.06F ORLANDO INTL MOSUNNY 76 65 68 CALM 30.08F DAYTONA BEACH CLOUDY 71 62 73 N7 30.10F VERO BEACH MOSUNNY 80 68 66 NE8 30.07F $$ ...ELSEWHERE ACROSS CENTRAL FLORIDA... CITY SKY/WX TMP DP RH WIND PRES REMARKS PATRICK AFB SUNNY 77 63 61 NE5 30.07F KSC PTSUNNY 74 65 74 NE5 30.08F CAPE CANAVERAL MOSUNNY 78 66 66 NE7 30.06F TITUSVILLE PTSUNNY 79 66 65 NE5 30.09F SEBASTIAN PTSUNNY 78 68 71 NE7 30.08F ORLANDO EXEC PTSUNNY 77 65 66 VRB3 30.08F LEESBURG CLOUDY 75 63 66 E6 30.09F SANFORD PTSUNNY 77 64 64 VRB3 30.09S DELAND CLOUDY 71 63 75 E7 30.10F NEW SMYRNA BCH MOSUNNY 72 64 78 NE12 30.08F ORMOND BEACH CLOUDY 64 63 94 N5 30.11F WINTER HAVEN MOSUNNY 80 67 64 VRB5 30.08F KISSIMMEE MOSUNNY 77 68 73 MISG 30.09F OKEECHOBEE PTSUNNY 79 68 69 CALM 30.07F TAMPA MOSUNNY 80 67 64 S13 30.07F $$ ...NORTHERN FLORIDA... CITY SKY/WX TMP DP RH WIND PRES REMARKS PALM COAST CLOUDY 63 61 94 N9 30.12S ST AUGUSTINE LGT RAIN 60 58 92 N14 30.14F FOG OCALA CLOUDY 72 62 71 NE3 30.10F GAINESVILLE LGT RAIN 61 59 93 NE8 30.15S FOG JACKSONVILLE LGT RAIN 57 55 93 NE16 30.15S FOG TALLAHASSEE DRIZZLE 56 54 93 N12 30.15S FOG $$ ...ALONG THE SOUTHEAST COAST TO THE KEYS... CITY SKY/WX TMP DP RH WIND PRES REMARKS STUART MOSUNNY 81 68 65 E6 30.09F WEST PALM BCH PTSUNNY 82 66 58 S6 30.07F MIAMI PTSUNNY 83 69 62 SE8 30.07S KEY WEST FAIR 81 70 69 SE9 30.07F $$ ...MARINE REPORTS... STATION/POSITION TIME TEMP WIND PRES WAVE SWELL AIR SEA DIR/SP/G HT/PER HT/PER (UTC) (F) (DEG/KT/KT) (MB) (FT/S) (FT/S) $$

USA.gov is the U.S. government's official web portal to all federal, state and local government web resources and services.